Tracking 18673 objects as of 25-June-2017
HD Live streaming from Space Station
objects crossing your sky now

FALCON 9 R/B

Track FALCON 9 R/B now!
10-day predictions


NORAD ID: 37253
Int'l Code: 2010-066K
Perigee: 304.1 km
Apogee: 10,274.0 km
Inclination: 34.5 °
Period: 208.8 minutes
Semi major axis: 11660 km
RCS: 20.0149 m2 (large)
Launch date: December 8, 2010
Source: United States (US)
Launch site: AIR FORCE EASTERN TEST RANGE (AFETR)

Note: This is a ROCKET BODY
Your satellite tracking list
Your tracking list is empty





NASA's NSSDC Master Catalog

Two Line Element Set (TLE):
1 37253U 10066K   17175.47216663 +.00002216 +00000-0 +22865-3 0  9996
2 37253 034.5265 340.2437 4275225 217.8742 102.6654 06.89526886160973
Source of the keplerian elements: AFSPC